This is the latest recevied weather packets stored in our database for station/object WX5RP. If no packets are shown the sender has not sent any weather packets the latest 10 day(s).
| Time | Temp. | Humidity | Pressure | Rain* | Wind** | Luminosity | Snow |
|---|---|---|---|---|---|---|---|
| 1777912517 | 17.78° C | 40% | 1014.1 hPa | 0 mm | - | 691 W/m² | - |
| 1777911915 | 16.67° C | 39% | 1014.1 hPa | 0 mm | - | 677 W/m² | - |
| 1777911317 | 16.11° C | 44% | 1014.2 hPa | 0 mm | - | 530 W/m² | - |
| 1777910717 | 15.56° C | 46% | 1013.1 hPa | 0 mm | - | 367 W/m² | - |
| 1777910117 | 15° C | 49% | 1013.1 hPa | 0 mm | - | 475 W/m² | - |
| 1777909517 | 14.44° C | 51% | 1013.1 hPa | 0 mm | - | 543 W/m² | - |
| 1777908917 | 13.89° C | 56% | 1013.6 hPa | 0 mm | - | 496 W/m² | - |
| 1777908317 | 12.78° C | 58% | 1013.9 hPa | 0 mm | - | 450 W/m² | - |
| 1777907717 | 12.22° C | 60% | 1013.9 hPa | 0 mm | - | 428 W/m² | - |
| 1777907117 | 11.67° C | 62% | 1013.7 hPa | 0 mm | - | 392 W/m² | - |
| 1777906517 | 11.11° C | 64% | 1013.7 hPa | 0 mm | - | 359 W/m² | - |
| 1777905917 | 10.56° C | 66% | 1013.4 hPa | 0 mm | - | 324 W/m² | - |
| 1777905316 | 9.44° C | 70% | 1013.4 hPa | 0 mm | - | 287 W/m² | - |
| 1777904717 | 8.33° C | 73% | 1013.8 hPa | 0 mm | - | 248 W/m² | - |
| 1777904117 | 6.67° C | 78% | 1013.5 hPa | 0 mm | - | 208 W/m² | - |
| 1777903516 | 6.11° C | 79% | 1013.4 hPa | 0 mm | - | 167 W/m² | - |
| 1777902917 | 5° C | 81% | 1013.6 hPa | 0 mm | - | 127 W/m² | - |
| 1777902317 | 3.89° C | 82% | 1013.3 hPa | 0 mm | - | 93 W/m² | - |
| 1777901716 | 2.78° C | 81% | 1013.2 hPa | 0 mm | - | 63 W/m² | - |
| 1777901116 | 2.78° C | 80% | 1012.9 hPa | 0 mm | - | 38 W/m² | - |
| 1777900516 | 2.78° C | 80% | 1013.2 hPa | 0 mm | - | 19 W/m² | - |
| 1777899917 | 3.33° C | 80% | 1012.8 hPa | 0 mm | - | 12 W/m² | - |
| 1777899316 | 2.78° C | 81% | 1012.9 hPa | 0 mm | - | 6 W/m² | - |
| 1777898717 | 2.78° C | 80% | 1013.2 hPa | 0 mm | - | 0 W/m² | - |
| 1777898116 | 2.78° C | 80% | 1012.6 hPa | 0 mm | - | 0 W/m² | - |
* Rain latest hour (hover to see other rain measurements)
** Current wind speed in m/s (hover to see current wind gust speed)